Regional Weather Roundup
Issued by NWS

Home | Current Version | Previous Version | Graphics & Text | Print | Product List | Glossary On
Versions: 1 2 3 4 5 6 7 8 9 10 11 12 13 14 15 16 17 18 19 20 21 22 23 24 25 26 27
000
ASUS45 KBOU 161607
RWRCO

WEATHER ROUNDUP FOR COLORADO
NATIONAL WEATHER SERVICE DENVER/BOULDER CO
1000 AM MDT WED AUG 16 2017

NOTE: "FAIR" INDICATES FEW OR NO CLOUDS BELOW 12000 FEET WITH NO
SIGNIFICANT WEATHER AND/OR OBSTRUCTIONS TO VISIBILITY.

COZ001>005-013-030-031-161700-
...NORTHWEST COLORADO...

CITY           SKY/WX    TMP DP  RH WIND       PRES   REMARKS
CRAIG          FAIR      59  47  64 CALM      30.23S
HAYDEN         FAIR      59  46  63 CALM      30.26S
MEEKER         FAIR      60  47  61 CALM      30.23R
RABBIT EARS PA FAIR      45  37  76 W8        30.42R
STEAMBOAT SPGS FAIR      55  46  71 CALM      30.24S
WALDEN         FAIR      55  37  50 N5        30.29S
$$

COZ006>008-011-161700-
...WEST CENTRAL VALLEYS...

CITY           SKY/WX    TMP DP  RH WIND       PRES   REMARKS
GRAND JUNCTION FAIR      72  45  37 SE7       30.12S
MONTROSE       FAIR      66  38  35 VRB3      30.19S
EAGLE          FAIR      63  42  46 VRB3      30.24S
RIFLE          FAIR      67  44  43 CALM      30.17S
DELTA          FAIR      70  39  32 CALM      30.16
NUCLA          FAIR      68  36  30 CALM      30.23S
$$

COZ017>023-064>068-161700-
...SOUTHWEST COLORADO...

CITY           SKY/WX    TMP DP  RH WIND       PRES   REMARKS
DURANGO        FAIR      64  34  32 CALM      30.24S
CORTEZ         FAIR      69  37  30 CALM      30.20R
PAGOSA SPRINGS FAIR      61  31  31 CALM      30.30S
TELLURIDE      FAIR      60  31  32 CALM      30.40R
WOLF CREEK PAS FAIR      45  30  57 NW3       30.57R
$$

COZ009-010-012-014-032>034-037-058>063-161700-
...CENTRAL COLORADO...

CITY           SKY/WX    TMP DP  RH WIND       PRES   REMARKS
ASPEN          FAIR      63  38  39 VRB5      30.27R
BUENA VISTA    FAIR      63  32  31 CALM      30.26S
COPPER MTN     PTSUNNY   45  34  65 NW6       30.50R
BERTHOUD PASS  CLOUDY    36  32  87 NW18G31   30.48S
COTTONWOOD PAS FAIR      61  30  31 S6        30.37S
GUNNISON       NOT AVBL
KREMMLING      FAIR      63  45  51 CALM      30.27S
LEADVILLE      FAIR      54  33  45 NW14G21   30.36R
MONARCH PASS   FAIR      43  30  61 W10G21    30.60R
SALIDA         FAIR      64  35  32 NE3       30.31S
SUNLIGHT       FAIR      46  34  61 W5        30.48R
WILKERSON PASS FAIR      46  32  57 W7        30.47R
$$

COZ069>075-161700-
...SAN LUIS VALLEY/SANGRE DE CRISTO MOUNTAINS...

CITY           SKY/WX    TMP DP  RH WIND       PRES   REMARKS
ALAMOSA        FAIR      63  36  36 CALM      30.26S
DEL NORTE      FAIR      64  34  32 W9        30.28S
LA VETA PASS   NOT AVBL
SAGUACHE       FAIR      63  34  34 NW7       30.28S
$$

COZ035-036-038>040-161700-
...NORTHERN COLORADO FRONT RANGE...

CITY           SKY/WX    TMP DP  RH WIND       PRES   REMARKS
DENVER INTL AP PTSUNNY   63  51  65 NE8       30.14R
DMNS CITY PARK   N/A     66  49  55 E7G16     30.14R
AURORA         PTSUNNY   64  49  59 NE7       30.16R
FRONT RANGE AP FAIR      63  54  72 N13       30.16R
ERIE MUNI ARPT FAIR      68  50  52 E6        30.18S
BOULDER MUN AP FAIR      66  50  55 CALM      30.13S
CENTENNIAL     PTSUNNY   65  47  52 NE5       30.16R
BROOMFIELD     PTSUNNY   64  52  63 E5        30.15S
FORT COLLINS   FAIR      65  54  67 S8        30.13R
LONGMONT       FAIR      68  53  57 S5        30.14S
$$

COZ041-046-047-076>085-087-088-161700-
...PIKES PEAK/PALMER DIVIDE AND SOUTHERN FOOTHILLS...

CITY           SKY/WX    TMP DP  RH WIND       PRES   REMARKS
COLO. SPRINGS  FAIR      66  48  52 S7        30.19R
A. F. ACADEMY  FAIR      64  46  53 SE5       30.19R
SCHRIEVER AFB  FAIR      64  47  53 W6        30.19R
CHEYENNE MTN   FAIR      63  50  62 S7G20     30.15F
ELLICOTT       FAIR     N/A N/A N/A NW5       30.17R
FALCON         FAIR      63  44  50 SW7       30.22S
FORT CARSON    FAIR      67  51  55 S9        30.16S
LIMON          FAIR      63  53  70 NW15      30.13R
MONUMENT HILL  FAIR      59  46  63 NE3       30.24R
CANON CITY     SUNNY     70  54  56 MISG      30.14S
WALSENBURG     FAIR      70  48  46 E3        30.17S
TRINIDAD       FAIR      67  46  47 S3        30.17R
$$

COZ042>045-048>051-090-091-161700-
...NORTHEAST COLORADO...

CITY           SKY/WX    TMP DP  RH WIND       PRES   REMARKS
GREELEY ARPT   FAIR      65  52  62 W5        30.12R
AKRON          PTSUNNY   65  54  67 NW16      30.09R
BURLINGTON     FAIR      68  58  70 NW16      30.05R
WRAY           NOT AVBL
YUMA           FAIR      64  55  72 NW16      30.04S
STERLING       FAIR      68  52  56 NW13      30.05R
HOLYOKE        FAIR      72  59  64 NW13G18   30.03S
FORT MORGAN    FAIR      66  49  55 NW10G16   30.11R
$$

COZ086-089-092>099-161700-
...SOUTHEAST COLORADO...

CITY           SKY/WX    TMP DP  RH WIND       PRES   REMARKS
PUEBLO         FAIR      71  47  42 MISG      30.10S
LA JUNTA       FAIR      72  52  49 W7        30.08F
LAMAR          FAIR      71  55  56 W12       30.04R
SPRINGFIELD      N/A     72  55  55 NW12      30.07S
$$




USA.gov is the U.S. government's official web portal to all federal, state and local government web resources and services.